Regional Weather Roundup
Issued by NWS

Home | Current Version | Previous Version | Graphics & Text | Print | Product List | Glossary On
Versions: 1 2 3 4 5 6 7 8 9 10 11 12 13 14 15 16 17 18 19 20 21 22 23 24 25 26 27 28 29 30 31 32 33 34 35 36 37 38 39 40 41 42 43 44 45 46 47 48 49 50
000
ASUS43 KLSX 201659
RWRMO

WEATHER SUMMARY FOR MISSOURI
NATIONAL WEATHER SERVICE SPRINGFIELD MO
1200 PM CDT MON APR 20 2015

NOTE: "FAIR" INDICATES FEW OR NO CLOUDS BELOW 12,000 FEET WITH NO
       SIGNIFICANT WEATHER AND/OR OBSTRUCTIONS TO VISIBILITY.
       CURRENT SKY AND/OR WEATHER CONDITIONS ARE NOT AVAILABLE FOR
       CHILLICOTHE AND FARMINGTON.

MOZ001>031-035>038-043-044-053-054-201800-
...NORTHERN AND WESTERN MISSOURI...

CITY           SKY/WX    TMP DP  RH WIND       PRES   REMARKS
KANSAS CTY INT MOSUNNY   54  32  43 NW21G33   29.85R
KANSAS C DTWN  LGT RAIN  55  30  38 NW15G26   29.85R
LEE`S SUMMIT   CLOUDY    51  30  44 NW23G30   29.86R
ST JOSEPH      PTSUNNY   52  32  46 W23G30    29.85R
CHILLICOTHE      N/A     53  33  46 NW14G28   29.80R
KIRKSVILLE     LGT RAIN  49  34  56 NW22G32   29.73R

$$
MOZ066>068-077>081-088>096-101>105-201800-
...SOUTHWEST MISSOURI...

CITY           SKY/WX    TMP DP  RH WIND       PRES   REMARKS
SPRINGFIELD    PTSUNNY   54  33  45 W20G29    29.88R
JOPLIN         MOSUNNY   55  32  41 NW18G32   29.94R

$$
MOZ032>034-039>042-045>050-055>058-069>072-201800-
...CENTRAL MISSOURI...

CITY           SKY/WX    TMP DP  RH WIND       PRES   REMARKS
COLUMBIA       CLOUDY    52  34  50 NW21G29   29.77R
JEFFERSON CITY PTSUNNY   53  32  44 W20G33    29.79R
ROLLA          CLOUDY    53  33  46 NW21      29.76R
SEDALIA        CLOUDY    52  34  50 NW20G25   29.83R
OSAGE BEACH    PTSUNNY   55  30  38 W15G22    29.81R

$$
MOZ051-052-059>065-201800-
...EAST CENTRAL MISSOURI...

CITY           SKY/WX    TMP DP  RH WIND       PRES   REMARKS
ST LOUIS INTL  PTSUNNY   55  36  48 NW21G30   29.71R
SPIRIT OF STL  PTSUNNY   55  36  48 W18G24    29.71R
ST CHARLES     CLOUDY    53  36  52 W28G35    29.70R

$$
MOZ072>076-082>087-097>100-106>115-201800-
...SOUTH CENTRAL AND SOUTHEAST MISSOURI...

CITY           SKY/WX    TMP DP  RH WIND       PRES   REMARKS
CAPE GIRARDEAU MOSUNNY   61  39  44 NW15G24   29.73R
FARMINGTON     PTSUNNY   55  36  47 W16G23    29.77R
POPLAR BLUFF   LGT RAIN  61  36  39 NW14G29   29.76R
WEST PLAINS    PTSUNNY   57  34  41 NW17G23   29.82R

$$



USA.gov is the U.S. government's official web portal to all federal, state and local government web resources and services.